Regional Weather Roundup
Issued by NWS

Home | Current Version | Previous Version | Text Only | Print | Product List | Glossary Off
Versions: 1 2 3 4 5 6 7 8 9 10 11 12 13 14 15 16 17 18 19 20 21 22 23 24 25 26 27 28 29 30 31 32 33 34 35 36 37 38 39 40 41 42 43 44 45 46 47 48 49 50

000
ASUS43 KMPX 231610
RWRMN
WEATHER ROUNDUP FOR MINNESOTA
NATIONAL WEATHER SERVICE TWIN CITIES/CHANHASSEN MN
1000 AM CST THU NOV 23 2017


NOTE: "FAIR" INDICATES FEW OR NO CLOUDS BELOW 12,000 FEET WITH NO
SIGNIFICANT WEATHER AND/OR OBSTRUCTIONS TO VISIBILITY. N/A MEANS
CURRENT SKY AND/OR WEATHER CONDITIONS ARE NOT AVAILABLE.

MNZ060>063-068>070-231700-
   Twin Cities Metro

CITY           SKY/WX    TMP DP  RH WIND       PRES   REMARKS
TWIN CITIES    MOSUNNY   33  21  61 NW3       29.95R
ST PAUL        SUNNY     32  21  64 NW5       29.97R WCI  27
CRYSTAL        SUNNY     32  18  56 NW3       29.94R
BLAINE         SUNNY     32  21  64 NW3       29.94R
LAKEVILLE      SUNNY     32  21  64 NW3       29.95R
EDEN PRAIRIE   SUNNY     32  20  61 CALM      29.94R
SOUTH ST PAUL  SUNNY     34  20  56 CALM      29.95R
LAKE ELMO      FAIR      32  23  69 CALM      29.96R
$$
MNZ001>005-007-008-013>017-022>024-027-028-231700-
   Northwest Minnesota

CITY           SKY/WX    TMP DP  RH WIND       PRES   REMARKS
BEMIDJI        FOG       21  20  96 SW5       29.86F VSB 1/4 WCI  15
HALLOCK        CLOUDY    27  27 100 S9        29.82F FOG     WCI  17
ROSEAU         CLOUDY    25  19  80 SW3       29.82F
WARROAD        CLOUDY    21  18  86 SW5       29.83F WCI  15
THIEF RVR FALL FOG       26  26 100 S9        29.84F VSB 1/4 WCI  17
CROOKSTON      CLOUDY    30  27  86 S9        29.85F WCI  22
FOSSTON        FOG       25  25 100 S7        29.86F VSB 1/4 WCI  17
DETROIT LAKES  FOG       28  28 100 CALM      29.88F VSB 1/2
MOORHEAD       CLOUDY    27  25  93 CALM      29.88F FOG
PARK RAPIDS    CLOUDY    24  19  81 NW3       29.87S
MAHNOMEN       CLOUDY    27  26  97 S7        29.85F FOG     WCI  19
$$
MNZ006-009>011-018-025>026-231700-
   North Central Minnesota

CITY           SKY/WX    TMP DP  RH WIND       PRES   REMARKS
BAUDETTE       CLOUDY    21  17  84 CALM      29.83F
FLAG ISLAND    CLOUDY    21  18  86 CALM      29.82F
INTL FALLS     CLOUDY    23  17  78 SW3       29.85S
WASKISH        CLOUDY    25  21  86 W8        29.85F WCI  16
BIG FORK       CLOUDY    25  19  80 CALM      29.85F
LONGVILLE      SUNNY     23  19  86 CALM      29.88F
GRAND RAPIDS   CLOUDY    30  21  69 W5        29.89S WCI  25
CRANE LAKE     CLOUDY    21  18  86 CALM      29.87F
ORR            CLOUDY    21  16  79 CALM      29.83S
COOK           CLOUDY    21  18  86 W5        29.86R WCI  15
WALKER         FAIR      24  19  78 W5        29.87F WCI  18
$$
MNZ012-019>021-037-231700-
   Northeast Minnesota

CITY           SKY/WX    TMP DP  RH WIND       PRES   REMARKS
DULUTH         CLOUDY    25  20  81 W9        29.87S WCI  15
ELY            CLOUDY    21  18  86 W6        29.84S WCI  14
HIBBING        CLOUDY    22  18  85 SW5       29.86S WCI  16
EVELETH        SUNNY     22  17  80 W6        29.86F WCI  15
DULUTH HARBOR  CLOUDY    27  23  86 S7        29.92F WCI  19
TWO HARBORS    PTSUNNY   30  23  74 W6        29.85S WCI  24
SILVER BAY     PTSUNNY   30  21  69 CALM      29.83S
GRAND MARAIS     N/A     30  22  72 SW7       29.85S WCI  23
G MARAIS ARPRT CLOUDY    21  16  79 W7        29.79F WCI  13
$$
MNZ029>031-032-039>041-046>048-054>057-064-231700-
   West Central Minnesota

CITY           SKY/WX    TMP DP  RH WIND       PRES   REMARKS
FERGUS FALLS   CLOUDY    25  19  80 SE5       29.91F WCI  19
WHEATON        SUNNY     30  21  69 SE6       29.90F WCI  24
MORRIS         SUNNY     30  19  64 CALM      29.91F
ALEXANDRIA     SUNNY     31  21  66 SW7       29.90F WCI  24
ELBOW LAKE     FAIR      26  20  80 E5        29.90F HAZE    WCI  20
WADENA         SUNNY     28  19  69 SW6       29.88F WCI  22
GLENWOOD       SUNNY     28  21  74 S3        29.91F
APPLETON       SUNNY     32  21  64 CALM      29.93F
BENSON         SUNNY     30  19  64 CALM      29.94F
ORTONVILLE     SUNNY     32  23  69 N5        29.91F WCI  27
MADISON        SUNNY     36  27  69 CALM      29.93F
WILLMAR        FAIR      28  23  80 CALM      29.94F
$$
MNZ033>034-036-042>043-049>051-058-059-231700-
   Central Minnesota

CITY           SKY/WX    TMP DP  RH WIND       PRES   REMARKS
ST CLOUD       SUNNY     31  21  66 CALM      29.93S
SAUK CENTRE    FAIR      31  23  72 SW3       29.92S
PAYNESVILLE    SUNNY     32  24  73 W5        29.94R WCI  27
AITKIN         CLOUDY    25  18  74 CALM      29.88F
PINE RIVER     SUNNY     21  18  86 CALM      29.92S
BRAINERD       SUNNY     24  18  77 SW3       29.91S HAZE
STAPLES        SUNNY     28  19  69 CALM      29.89F
LITTLE FALLS   SUNNY     28  16  59 CALM      29.92S
LITCHFIELD     SUNNY     34  25  69 CALM      29.94R
BUFFALO        SUNNY     29  20  68 CALM      29.96S
MAPLE LAKE     SUNNY     31  23  71 CALM      29.95S
HUTCHINSON     SUNNY     31  23  71 CALM      29.95S
$$
MNZ037-044-045-052-053-231700-
   East Central Minnesota

CITY           SKY/WX    TMP DP  RH WIND       PRES   REMARKS
PRINCETON      SUNNY     32  23  69 CALM      29.94S
MORA           SUNNY     28  21  74 CALM      29.94S
CAMBRIDGE      SUNNY     32  19  59 CALM      29.94S
RUSH CITY      CLOUDY    28  21  74 CALM      29.94S
MOOSE LAKE     CLOUDY    27  21  80 W3        29.90R
HINCKLEY       FAIR      28  23  80 CALM      29.93S
CLOQUET        CLOUDY    27  19  74 W5        29.89R WCI  21
MCGREGOR       CLOUDY    27  23  86 CALM      29.90F
$$
MNZ071>073-080-081-089-090-097-098-231700-
   Southwest Minnesota

CITY           SKY/WX    TMP DP  RH WIND       PRES   REMARKS
MONTEVIDEO     SUNNY     36  30  80 CALM      29.93F
GRANITE FALLS  SUNNY     34  24  66 W3        29.95F
CANBY          SUNNY     38  27  66 CALM      29.94F
MARSHALL       SUNNY     36  22  56 S5        29.94F
REDWOOD FALLS  SUNNY     32  21  64 SW5       29.95F WCI  27
OLIVIA         SUNNY     32  25  74 CALM      29.94S
PIPESTONE      SUNNY     34  25  69 N3        29.94S
WINDOM         SUNNY     36  19  51 W3        29.96R
WORTHINGTON    SUNNY     36  24  62 SW7       29.96F
JACKSON        SUNNY     34  25  69 CALM      29.96F
SLAYTON        SUNNY     37  20  52 SW6       29.95F
$$
MNZ065>067-074>077-082>085-091>093-231700-
   South Central Minnesota

CITY           SKY/WX    TMP DP  RH WIND       PRES   REMARKS
MANKATO        SUNNY     30  20  66 W5        29.96F WCI  25
NEW ULM        SUNNY     30  19  64 CALM      29.96S
ST JAMES       SUNNY     34  23  64 W5        29.97F WCI  30
FAIRMONT       SUNNY     33  23  66 NW6       29.97S WCI  28
GLENCOE        SUNNY     32  22  69 CALM      29.94F
FARIBAULT      SUNNY     32  19  59 CALM      29.95S
OWATONNA       SUNNY     32  21  64 CALM      29.94F
WASECA         SUNNY     32  21  64 W3        29.96F
ALBERT LEA     SUNNY     34  19  55 CALM      29.94F
$$
MNZ078>079-086>088-094>096-231700-
   Southeast Minnesota

CITY           SKY/WX    TMP DP  RH WIND       PRES   REMARKS
ROCHESTER      SUNNY     34  21  59 NW5       29.93F WCI  30
RED WING       SUNNY     32  18  55 W3        29.94S
STANTON        SUNNY     33  22  64 W3        29.94R
DODGE CENTER   SUNNY     34  19  55 W3        29.93R
WINONA         SUNNY     34  23  64 CALM      29.95F
AUSTIN         SUNNY     34  19  55 NW6       29.94S WCI  29
PRESTON        SUNNY     32  20  60 N5        29.92F WCI  28
$$
ABBREVIATIONS USED IN REMARKS
   TC - TEMPERATURES IN CELSIUS
  WCI - WIND CHILL INDEX
   HX - HEAT INDEX
  VSB - VISIBILITY
$$




USA.gov is the U.S. government's official web portal to all federal, state and local government web resources and services.